カタログに戻る

ONEWEB-0273

運用中通信PO
NORAD 48991·PAYLOAD·🇬🇧 United Kingdom

打ち上げ Jul 1, 2021 から Vostochny Cosmodrome

Loading…

次のパス (今後24時間)

TLE

最新Source: CelesTrak SupGP

元期: Sep 14, 2026, 16:06 UTC

1 48991C 21060AA  26257.67101111  .00001044  00000+0  27343-2 0  2576
2 48991  87.9136 211.0132 0002061  75.9922 319.2252 13.16589616    11

AllMySatでONEWEB-0273をリアルタイム追跡

Download on the App Store